TUBIN
1 48900U 21059X   25278.54660903  .00105654  00000-0  71128-3 0  9998
2 48900  97.6748  98.4495 0002230 160.5193 199.6157 15.74832702238500
LEDSAT
1 49069U 21073D   25278.45918471  .00727450  24451-3  14458-2 0  9992
2 49069  97.3678   6.8619 0006681 292.1943  67.8626 15.99904194229954
CUTE
1 49263U 21088D   25278.20864841  .00030837  00000-0  49593-3 0  9994
2 49263  97.4420 358.2750 0006609 153.9184 206.2403 15.52921897222646
TeikyoSat 4
1 49396U 21102B   25278.47412022  .00002709  00000-0  17878-3 0  9995
2 49396  97.4000 312.6194 0014194  89.7676 270.5180 15.08184087214317
Z-Sat
1 49399U 21102E   25278.52609580  .00007120  00000-0  37763-3 0  9998
2 49399  97.3692 316.5250 0019001  58.2444 302.0637 15.15500518214832
KOSEN 1
1 49402U 21102H   25278.10162947  .00011695  00000-0  51237-3 0  9992
2 49402  97.3590 320.4553 0016006  33.5848 326.6399 15.22047700215150
HO-113
1 50466U 21131B   25278.53499184  .00001195  00000-0  38568-3 0  9995
2 50466  98.5075   7.3013 0005042 133.8832 226.2773 14.40971619198436
SNUGLITE 2
1 52899U 22065F   25278.37271343  .00002292  00000-0  45067-3 0  9992
2 52899  98.1857  59.3331 0008683 102.8410 257.3763 14.63546544173712
UmKA 1 (RS40S)
1 57172U 23091G   25278.49417132  .00009168  00000-0  46840-3 0  9991
2 57172  97.5457 333.2808 0012389 287.9119  72.0762 15.16843255125347
CubeBel-2 (EU11S)
1 57175U 23091K   25278.51492830  .00014982  00000-0  66244-3 0  9995
2 57175  97.5453 335.2327 0010071 292.9562  67.0610 15.21752411125477
ENSO
1 58470U 23185J   25274.64559369  .00294403  00000-0  17996-2 0  9996
2 58470  97.3585 354.6123 0002855 341.7791  18.3372 15.76527964102851
SONATE-2
1 59112U 24043Q   25278.34940985  .00030972  00000-0  76413-3 0  9992
2 59112  97.5279  52.3268 0010385  55.0530 305.1689 15.40426035 88435
MO-122
1 60209U 24125G   25278.52264661  .00031267  00000-0  75254-3 0  9992
2 60209  97.2635 129.0811 0018383  73.9852 286.3418 15.41050196 70089
GRBBeta
1 60237U 24128C   25278.48379358  .00006948  00000-0  50001-3 0  9992
2 60237  61.9927  28.1550 0056893  82.3550 278.3998 15.03817973 67923
Curium One
1 60242U 24128H   25278.49817530  .00012515  00000-0  81047-3 0  9999
2 60242  61.9822  24.4497 0056483  78.8881 281.8556 15.07182834 67995
ROBUSTA-3A
1 60243U 24128J   25278.47422343  .00011904  00000-0  78419-3 0  9992
2 60243  61.9896  25.7845 0056350  76.3915 284.3445 15.06598510 67976
CatSat
1 60246U 24125J   25278.53005769  .00031871  00000-0  92178-3 0  9991
2 60246  97.2455 126.9024 0039429  35.3182 325.0662 15.34764768 68048
HYPERVIEW-1G (RS66S)
1 61772U 24199AP  25278.58050887  .00038075  00000-0  90927-3 0  9996
2 61772  97.3323 147.4743 0013768 122.2940 237.9643 15.41324917 95091
AO-123
1 61781U 24199AY  25278.56862125  .00011784  00000-0  40462-3 0  9997
2 61781  97.3349 144.8254 0016526 133.8645 226.3965 15.30153299 94912
ZIMSAT 2
1 61783U 24199BA  25278.52746912  .00086554  00000-0  14003-2 0  9998
2 61783  97.3265 149.2891 0012702 114.5499 245.7079 15.52439862 98363
HADES-R (SO-124)
1 62690U 25009CK  25276.18745340  .00145426  00000-0  35702-2 0  9994
2 62690  97.3995 357.1923 0001264  42.1528 317.9815 15.40110564 39869
HYDRA-T
1 62692U 25009CM  25276.21012960  .00151842  00000-0  36553-2 0  9999
2 62692  97.3998 357.3139 0001103  26.7154 333.4148 15.40681155 39872
JINJUSat 1B
1 63210U 25052A   25278.42059576  .00018868  00000-0  78742-3 0  9990
2 63210  97.4240 171.1474 0001461 271.6393  88.4677 15.23706693 31172
NUSHSAT 1
1 63211U 25052B   25278.18988293  .00023551  00000-0  96434-3 0  9994
2 63211  97.4233 170.9691 0001490 290.2575  69.8502 15.24302685 31145
TEVEL2-4
1 63213U 25052D   25278.42820139  .00020662  00000-0  85825-3 0  9999
2 63213  97.4149 170.8890 0001370 346.1678  13.9521 15.23846908 31179
TEVEL2-5
1 63214U 25052E   25277.97138532  .00024980  00000-0  10384-2 0  9992
2 63214  97.4146 170.4312 0001439 345.5361  14.5835 15.23783239 31105
TEVEL2-6
1 63215U 25052F   25278.23930605  .00020646  00000-0  85998-3 0  9993
2 63215  97.4144 170.6882 0001372 343.4401  16.6791 15.23752502 31143
TEVEL2-1
1 63217U 25052H   25278.13737155  .00020265  00000-0  85111-3 0  9993
2 63217  97.4125 170.4518 0002220 356.1254   3.9965 15.23475207 31122
TEVEL2-3
1 63218U 25052J   25278.26866388  .00020595  00000-0  86443-3 0  9994
2 63218  97.4128 170.5842 0002248 357.1669   2.9555 15.23492926 31141
TEVEL2-2
1 63219U 25052K   25278.20380553  .00020350  00000-0  85462-3 0  9993
2 63219  97.4128 170.5174 0002251 356.6992   3.4230 15.23476611 31135
TEVEL2-9
1 63237U 25052AD  25278.23480269  .00019114  00000-0  83483-3 0  9998
2 63237  97.4190 170.3429 0006474 342.9497  17.1521 15.22141377 31114
TEVEL2-7
1 63238U 25052AE  25278.44027666  .00019288  00000-0  84475-3 0  9994
2 63238  97.4192 170.5313 0006570 342.0495  18.0508 15.22045410 31146
TEVEL2-8
1 63239U 25052AF  25278.18169306  .00019504  00000-0  85512-3 0  9998
2 63239  97.4195 170.2640 0006608 342.3914  17.7092 15.22005912 31104
HYDRA-W
1 63490U 25052BL  25277.96608586  .00070120  00000-0  23105-2 0  9990
2 63490  97.4123 171.3174 0007802 338.5542  21.5371 15.31173093 31164
HADES-ICM (SO-125)
1 63492U 25052BN  25278.22530882  .00051026  00000-0  17363-2 0  9998
2 63492  97.4143 171.4462 0008458 340.4559  19.6357 15.30220116 31190
